GW3225 Weather Reports


time (UTC)temp
F
wind
direction
speed
knots
gust
knots
rain 1hr
in
rain 24hr
in
rain mn
in
humidity
%
barometer
mb
20260906213009 69 184 0.0 0.9 0.00 0.00 0.00 61 1020.0
20260906212502 69 191 0.0 0.0 0.00 0.00 0.00 62 1020.2
20260906211958 69 248 2.6 3.5 0.00 0.00 0.00 64 1020.2
20260906211452 69 211 0.9 0.9 0.00 0.00 0.00 68 1020.1
20260906210947 70 204 0.0 0.0 0.00 0.00 0.00 66 1019.9
20260906210442 70 242 0.9 1.7 0.00 0.00 0.00 64 1020.0
20260906205936 71 204 0.9 0.9 0.00 0.00 0.00 62 1020.0
20260906205432 71 261 0.0 0.9 0.00 0.00 0.00 63 1019.8
20260906204928 70 202 0.9 0.9 0.00 0.00 0.00 65 1019.8
20260906204428 69 195 0.0 0.0 0.00 0.00 0.00 68 1020.0
20260906203927 68 199 0.0 0.9 0.00 0.00 0.00 68 1019.9
20260906203422 71 177 0.9 0.9 0.00 0.00 0.00 67 1019.9
20260906202920 70 192 0.0 0.0 0.00 0.00 0.00 66 1019.8
20260906202419 69 200 0.0 0.9 0.00 0.00 0.00 68 1019.9
20260906201914 70 1 0.9 2.6 0.00 0.00 0.00 66 1019.7
20260906201408 71 223 2.6 3.5 0.00 0.00 0.00 66 1019.6
20260906200903 73 258 3.5 5.2 0.00 0.00 0.00 61 1019.8
20260906200359 73 195 0.0 0.9 0.00 0.00 0.00 66 1019.6
20260906195854 74 162 1.7 1.7 0.00 0.00 0.00 63 1019.8
20260906195350 73 197 0.9 1.7 0.00 0.00 0.00 65 1019.9
20260906194846 73 204 1.7 1.7 0.00 0.00 0.00 63 1019.7
20260906194342 72 182 1.7 1.7 0.00 0.00 0.00 65 1019.6
20260906193837 72 222 0.9 0.9 0.00 0.00 0.00 65 1019.5
20260906193332 70 212 0.9 0.9 0.00 0.00 0.00 66 1019.7
20260906192827 71 197 0.9 1.7 0.00 0.00 0.00 64 1019.7
20260906192322 73 185 0.0 0.9 0.00 0.00 0.00 63 1019.4
20260906191821 73 222 1.7 2.6 0.00 0.00 0.00 59 1019.7
20260906191315 71 203 0.9 0.9 0.00 0.00 0.00 62 1019.5
20260906190809 75 203 0.9 0.9 0.00 0.00 0.00 59 1019.7
20260906190308 74 184 0.9 1.7 0.00 0.00 0.00 58 1019.6
20260906185803 71 192 0.0 0.0 0.00 0.00 0.00 61 1019.4
20260906185305 73 209 0.9 0.9 0.00 0.00 0.00 60 1019.6
20260906184756 73 221 1.7 1.7 0.00 0.00 0.00 65 1019.6
20260906184251 73 184 0.0 0.0 0.00 0.00 0.00 62 1019.6
20260906183747 74 217 0.9 0.9 0.00 0.00 0.00 65 1019.5
20260906183243 74 176 0.9 0.9 0.00 0.00 0.00 63 1019.6
20260906182738 74 208 1.7 1.7 0.00 0.00 0.00 62 1019.7
20260906182234 73 196 0.0 0.0 0.00 0.00 0.00 63 1019.5
20260906181729 73 353 1.7 2.6 0.00 0.00 0.00 65 1019.7
20260906181225 74 200 0.9 0.9 0.00 0.00 0.00 68 1019.6
20260906180719 73 186 0.9 0.9 0.00 0.00 0.00 65 1019.7
20260906180214 72 199 0.9 0.9 0.00 0.00 0.00 67 1019.8
20260906175712 73 25 0.9 1.7 0.00 0.00 0.00 62 1019.8
20260906175208 71 187 0.0 0.0 0.00 0.00 0.00 66 1019.7
20260906174706 70 201 0.9 0.9 0.00 0.00 0.00 69 1019.7
20260906174201 72 40 1.7 1.7 0.00 0.00 0.00 68 1019.8
20260906173656 73 192 0.0 0.0 0.00 0.00 0.00 65 1019.8
20260906173152 72 183 0.0 0.0 0.00 0.00 0.00 68 1020.0
20260906172651 73 194 0.0 0.9 0.00 0.00 0.00 66 1019.7
20260906172147 73 176 0.0 0.0 0.00 0.00 0.00 64 1019.9
20260906171646 72 245 1.7 2.6 0.00 0.00 0.00 67 1019.6
20260906171142 72 194 0.0 0.0 0.00 0.00 0.00 68 1019.7
20260906170638 71 194 0.0 0.0 0.00 0.00 0.00 71 1019.6
20260906170137 70 200 0.9 1.7 0.00 0.00 0.00 73 1019.9
20260906165634 71 187 0.9 0.9 0.00 0.00 0.00 71 1019.7
20260906165129 70 192 1.7 2.6 0.00 0.00 0.00 72 1019.8
20260906164627 69 192 1.7 1.7 0.00 0.00 0.00 72 1019.9
20260906164123 70 174 1.7 2.6 0.00 0.00 0.00 71 1019.8
20260906163620 72 197 0.0 0.0 0.00 0.00 0.00 69 1019.8
20260906163115 71 183 0.0 0.0 0.00 0.00 0.00 71 1019.7
20260906162612 70 197 0.9 0.9 0.00 0.00 0.00 75 1019.7
20260906162106 70 200 0.9 1.7 0.00 0.00 0.00 75 1019.6
20260906161601 69 314 0.9 1.7 0.00 0.00 0.00 74 1019.8
20260906161100 68 216 0.9 0.9 0.00 0.00 0.00 76 1019.8
20260906160559 69 192 0.9 1.7 0.00 0.00 0.00 74 1019.9
20260906160058 69 17 1.7 2.6 0.00 0.00 0.00 74 1019.7
20260906155555 69 186 0.0 0.0 0.00 0.00 0.00 77 1019.7
20260906155052 70 189 0.0 0.9 0.00 0.00 0.00 74 1019.5
20260906154547 70 209 0.0 0.0 0.00 0.00 0.00 74 1019.5
20260906154046 69 182 1.7 1.7 0.00 0.00 0.00 76 1019.6
20260906153544 68 189 1.7 1.7 0.00 0.00 0.00 77 1019.7
20260906153040 68 231 2.6 3.5 0.00 0.00 0.00 77 1019.7
20260906152539 69 193 0.9 0.9 0.00 0.00 0.00 79 1019.6
20260906152038 68 193 0.0 0.0 0.00 0.00 0.00 80 1019.8
20260906151534 69 189 1.7 2.6 0.00 0.00 0.00 78 1019.6
20260906151029 68 209 0.9 0.9 0.00 0.00 0.00 81 1019.3
20260906150525 70 251 0.9 3.5 0.00 0.00 0.00 81 1019.5
20260906150020 68 195 0.9 0.9 0.00 0.00 0.00 84 1019.4
20260906145518 67 246 0.0 0.9 0.00 0.00 0.00 85 1019.6
20260906145014 66 168 0.0 0.0 0.00 0.00 0.00 86 1019.6
20260906144508 66 200 0.0 0.0 0.00 0.00 0.00 87 1019.4
20260906144003 66 153 0.9 0.9 0.00 0.00 0.00 87 1019.4
20260906143458 66 172 0.0 0.9 0.00 0.00 0.00 87 1019.3
20260906142954 66 195 0.9 0.9 0.00 0.00 0.00 86 1019.3
20260906142448 66 264 0.9 1.7 0.00 0.00 0.00 88 1019.6
20260906141943 66 193 0.9 1.7 0.00 0.00 0.00 87 1019.4
20260906141443 66 304 0.9 1.7 0.00 0.00 0.00 89 1019.5
20260906140938 65 184 0.0 0.9 0.00 0.00 0.00 90 1019.5
20260906140432 65 190 0.0 0.9 0.00 0.00 0.00 90 1019.4
20260906135925 65 186 0.0 0.0 0.00 0.00 0.00 90 1019.3
20260906135424 65 183 0.0 0.9 0.00 0.00 0.00 90 1019.0
20260906134920 66 284 0.9 0.9 0.00 0.00 0.00 90 1019.1
20260906134415 65 193 0.0 0.0 0.00 0.00 0.00 91 1019.2
20260906133909 65 199 0.9 0.9 0.00 0.00 0.00 91 1019.1
20260906133405 64 172 0.0 0.9 0.00 0.00 0.00 93 1018.9
20260906132901 64 185 0.0 0.0 0.00 0.00 0.00 94 1019.1
20260906132355 64 195 0.9 1.7 0.00 0.00 0.00 94 1019.0
20260906131851 64 189 0.9 0.9 0.00 0.00 0.00 96 1019.1
20260906131347 63 205 1.7 1.7 0.00 0.00 0.00 98 1018.9
20260906130842 63 165 0.9 0.9 0.00 0.00 0.00 99 1019.1
20260906130342 63 189 0.0 0.0 0.00 0.00 0.00 99 1019.0
20260906125841 62 195 0.9 0.9 0.00 0.00 0.00 99 1018.9
20260906125338 62 230 0.9 0.9 0.00 0.00 0.00 99 1019.1
20260906124833 62 222 2.6 2.6 0.00 0.00 0.00 99 1019.0
20260906124329 62 224 1.7 1.7 0.00 0.00 0.00 99 1018.8
20260906123828 62 201 0.9 0.9 0.00 0.00 0.00 99 1018.8
20260906123323 62 214 0.0 0.9 0.00 0.00 0.00 99 1018.7
20260906122823 61 183 0.0 0.0 0.00 0.00 0.00 99 1019.0
20260906122318 61 194 0.0 0.0 0.00 0.00 0.00 99 1018.7
20260906121815 61 197 0.0 0.0 0.00 0.00 0.00 99 1018.8
20260906121311 61 195 0.0 0.0 0.00 0.00 0.00 99 1018.6
20260906120807 61 194 0.0 0.0 0.00 0.00 0.00 99 1018.6
20260906120303 60 194 0.0 0.0 0.00 0.00 0.00 99 1018.7
20260906115759 60 194 0.0 0.0 0.00 0.00 0.00 99 1018.7
20260906115254 60 189 0.0 0.0 0.00 0.00 0.00 99 1018.7
20260906114753 60 187 0.0 0.0 0.00 0.00 0.00 99 1018.3
20260906114248 60 192 0.0 0.0 0.00 0.00 0.00 99 1018.4
20260906113743 59 192 0.0 0.0 0.00 0.00 0.00 99 1018.2
20260906113242 59 191 0.0 0.0 0.00 0.00 0.00 99 1018.2
20260906112737 59 192 0.0 0.0 0.00 0.00 0.00 99 1018.0
20260906112233 58 180 0.0 0.0 0.00 0.00 0.00 99 1018.1
20260906111733 58 180 0.0 0.0 0.00 0.00 0.00 99 1018.0
20260906111227 57 180 0.0 0.0 0.00 0.00 0.00 99 1018.2
20260906110722 57 180 0.0 0.0 0.00 0.00 0.00 99 1018.0
20260906110219 57 180 0.0 0.0 0.00 0.00 0.00 99 1018.0
20260906105717 57 180 0.0 0.0 0.00 0.00 0.00 99 1017.9
20260906105214 57 180 0.0 0.0 0.00 0.00 0.00 99 1017.7
20260906104713 57 180 0.0 0.0 0.00 0.00 0.00 99 1017.9
20260906104212 57 180 0.0 0.0 0.00 0.00 0.00 99 1018.0
20260906103710 57 180 0.0 0.0 0.00 0.00 0.00 99 1017.9
20260906103205 58 180 0.0 0.0 0.00 0.00 0.00 99 1017.8
20260906102701 58 180 0.0 0.0 0.00 0.00 0.00 99 1017.7
20260906102159 58 180 0.0 0.0 0.00 0.00 0.00 99 1017.8
20260906101654 58 180 0.0 0.0 0.00 0.00 0.00 99 1017.8
20260906101149 58 180 0.0 0.0 0.00 0.00 0.00 99 1017.7
20260906100644 58 180 0.0 0.0 0.00 0.00 0.00 99 1017.5
20260906100139 58 180 0.0 0.0 0.00 0.00 0.00 99 1017.6
20260906095634 59 180 0.0 0.0 0.00 0.00 0.00 99 1017.7
20260906095129 59 180 0.0 0.0 0.00 0.00 0.00 99 1017.6
20260906094628 59 180 0.0 0.0 0.00 0.00 0.00 99 1017.5
20260906094124 59 180 0.0 0.0 0.00 0.00 0.00 99 1017.3
20260906093620 58 180 0.0 0.0 0.00 0.00 0.00 99 1017.3
20260906093114 58 180 0.0 0.0 0.00 0.00 0.00 99 1017.1
20260906092609 58 180 0.0 0.0 0.00 0.00 0.00 99 1017.2
20260906092105 58 180 0.0 0.0 0.00 0.00 0.00 99 1017.2
20260906091600 58 180 0.0 0.0 0.00 0.00 0.00 99 1017.1
20260906091057 59 180 0.0 0.0 0.00 0.00 0.00 99 1017.0
20260906090557 59 180 0.0 0.0 0.00 0.00 0.00 99 1017.2
20260906090057 59 180 0.0 0.0 0.00 0.00 0.00 99 1017.0
20260906085556 59 180 0.0 0.0 0.00 0.00 0.00 99 1016.8
20260906085050 59 180 0.0 0.0 0.00 0.00 0.00 99 1016.8
20260906084545 59 180 0.0 0.0 0.00 0.00 0.00 99 1016.6
20260906084044 59 180 0.0 0.0 0.00 0.00 0.00 99 1016.6
20260906083540 59 180 0.0 0.0 0.00 0.00 0.00 99 1016.6
20260906083039 59 180 0.0 0.0 0.00 0.00 0.00 99 1016.7
20260906082535 60 180 0.0 0.0 0.00 0.00 0.00 99 1016.5
20260906082031 60 180 0.0 0.0 0.00 0.00 0.00 99 1016.6
20260906081526 60 180 0.0 0.0 0.00 0.00 0.00 99 1016.5
20260906081021 60 180 0.0 0.0 0.00 0.00 0.00 99 1016.6
20260906080518 60 180 0.0 0.0 0.00 0.00 0.00 99 1016.6
20260906080013 60 180 0.0 0.0 0.00 0.00 0.00 99 1016.6
20260906075507 60 180 0.0 0.0 0.00 0.00 0.00 99 1016.5
20260906075002 60 180 0.0 0.0 0.00 0.00 0.00 99 1016.4
20260906074457 60 180 0.0 0.0 0.00 0.00 0.00 99 1016.5
20260906073955 60 180 0.0 0.0 0.00 0.00 0.00 99 1016.5
20260906073450 60 180 0.0 0.0 0.00 0.00 0.00 99 1016.5
20260906072947 60 179 0.0 0.0 0.00 0.00 0.00 98 1016.4
20260906072442 60 179 0.0 0.0 0.00 0.00 0.00 98 1016.5
20260906071938 60 179 0.0 0.0 0.00 0.00 0.00 98 1016.5
20260906071433 60 179 0.0 0.0 0.00 0.00 0.00 98 1016.6
20260906070929 60 179 0.0 0.0 0.00 0.00 0.00 98 1016.4
20260906070425 60 179 0.0 0.0 0.00 0.00 0.00 98 1016.6
20260906065921 60 179 0.0 0.0 0.00 0.00 0.00 98 1016.4
20260906065415 60 179 0.0 0.0 0.00 0.00 0.00 98 1016.6
20260906064910 60 179 0.0 0.0 0.00 0.00 0.00 98 1016.6
20260906064407 60 179 0.0 0.0 0.00 0.00 0.00 98 1016.7
20260906063901 60 179 0.0 0.0 0.00 0.00 0.00 97 1016.6
20260906063356 60 179 0.0 0.0 0.00 0.00 0.00 97 1016.6
20260906062851 60 179 0.0 0.0 0.00 0.00 0.00 97 1016.5
20260906062350 60 179 0.0 0.0 0.00 0.00 0.00 97 1016.6
20260906061846 61 179 0.0 0.0 0.00 0.00 0.00 97 1016.6
20260906061342 61 179 0.0 0.0 0.00 0.00 0.00 97 1016.5
20260906060836 61 179 0.0 0.0 0.00 0.00 0.00 97 1016.6
20260906060335 62 179 0.0 0.0 0.00 0.00 0.00 97 1016.6
20260906055830 62 179 0.0 0.0 0.00 0.00 0.00 97 1016.6
20260906055326 62 179 0.0 0.0 0.00 0.00 0.00 97 1016.5
20260906054820 62 179 0.0 0.0 0.00 0.00 0.00 97 1016.8
20260906054315 61 179 0.0 0.0 0.00 0.00 0.00 97 1016.8
20260906053812 61 179 0.0 0.0 0.00 0.00 0.00 96 1016.8
20260906053307 61 179 0.0 0.0 0.00 0.00 0.00 96 1016.5
20260906052802 61 179 0.0 0.0 0.00 0.00 0.00 96 1016.7
20260906052259 61 179 0.0 0.0 0.00 0.00 0.00 96 1016.7
20260906051756 61 179 0.0 0.0 0.00 0.00 0.00 96 1016.8
20260906051254 61 183 0.0 0.0 0.00 0.00 0.00 96 1016.8
20260906050750 61 183 0.0 0.0 0.00 0.00 0.00 96 1016.7
20260906050240 61 183 0.0 0.0 0.00 0.00 0.00 96 1016.9
20260906045738 61 183 0.0 0.0 0.00 0.00 0.00 96 1016.9
20260906045233 61 183 0.0 0.0 0.00 0.00 0.00 96 1016.7
20260906044728 61 183 0.0 0.0 0.00 0.00 0.00 96 1016.8
20260906044223 61 183 0.0 0.0 0.00 0.00 0.00 96 1016.9
20260906043720 61 183 0.0 0.0 0.00 0.00 0.00 96 1016.7
20260906043215 61 183 0.0 0.0 0.00 0.00 0.00 96 1016.7
20260906042715 61 183 0.0 0.0 0.00 0.00 0.00 96 1016.6
20260906042209 61 183 0.0 0.0 0.00 0.00 0.00 96 1016.7
20260906041704 61 183 0.0 0.0 0.00 0.00 0.00 96 1016.6
20260906041159 61 183 0.0 0.0 0.00 0.00 0.00 96 1016.5
20260906040655 61 183 0.0 0.0 0.00 0.00 0.00 96 1016.5
20260906040150 61 183 0.0 0.0 0.00 0.00 0.00 96 1016.5
20260906035645 60 182 0.0 0.0 0.00 0.00 0.00 96 1016.3
20260906035141 60 182 0.0 0.0 0.00 0.00 0.00 96 1016.5
20260906034635 60 183 0.0 0.0 0.00 0.00 0.00 96 1016.5
20260906034130 60 182 0.0 0.0 0.00 0.00 0.00 96 1016.4
20260906033626 60 182 0.0 0.0 0.00 0.00 0.00 96 1016.4
20260906033120 61 182 0.0 0.0 0.00 0.00 0.00 96 1016.3
20260906032617 61 182 0.0 0.0 0.00 0.00 0.00 96 1016.3
20260906032116 61 182 0.0 0.0 0.00 0.00 0.00 96 1016.3
20260906031612 61 182 0.0 0.0 0.00 0.00 0.00 96 1016.2
20260906031108 61 182 0.0 0.0 0.00 0.00 0.00 95 1016.4
20260906030607 61 182 0.0 0.0 0.00 0.00 0.00 95 1016.1
20260906025602 61 182 0.0 0.0 0.00 0.00 0.00 95 1016.2
20260906025100 60 182 0.0 0.0 0.00 0.00 0.00 95 1016.2
20260906024555 61 182 0.0 0.0 0.00 0.00 0.00 95 1016.2
20260906024050 61 182 0.0 0.0 0.00 0.00 0.00 95 1016.1
20260906023546 61 182 0.0 0.0 0.00 0.00 0.00 95 1016.2
20260906023040 61 182 0.0 0.0 0.00 0.00 0.00 94 1015.9
20260906022536 61 182 0.0 0.0 0.00 0.00 0.00 94 1016.1
20260906022031 61 182 0.0 0.0 0.00 0.00 0.00 93 1016.0
20260906021526 61 182 0.0 0.0 0.00 0.00 0.00 93 1016.1
20260906021020 62 182 0.0 0.0 0.00 0.00 0.00 93 1016.1
20260906020519 62 182 0.0 0.0 0.00 0.00 0.00 93 1016.1
20260906020019 62 182 0.0 0.0 0.00 0.00 0.00 92 1015.9
20260906015518 62 182 0.0 0.0 0.00 0.00 0.00 92 1016.1
20260906015018 62 182 0.0 0.0 0.00 0.00 0.00 92 1016.1
20260906014513 62 182 0.0 0.0 0.00 0.00 0.00 92 1016.0
20260906014009 62 182 0.0 0.0 0.00 0.00 0.00 92 1015.8
20260906013504 62 182 0.0 0.0 0.00 0.00 0.00 92 1015.8
20260906013000 62 182 0.0 0.0 0.00 0.00 0.00 92 1016.0
20260906012455 62 183 0.0 0.0 0.00 0.00 0.00 91 1016.0
20260906011954 62 183 0.0 0.0 0.00 0.00 0.00 91 1015.8
20260906011449 63 183 0.0 0.0 0.00 0.00 0.00 91 1015.8
20260906010944 63 183 0.0 0.0 0.00 0.00 0.00 91 1015.8
20260906010439 63 183 0.0 0.0 0.00 0.00 0.00 91 1015.9
20260906005935 62 183 0.0 0.0 0.00 0.00 0.00 91 1015.7
20260906005430 63 183 0.0 0.0 0.00 0.00 0.00 90 1015.8
20260906004928 63 183 0.0 0.0 0.00 0.00 0.00 90 1015.9
20260906004422 63 183 0.0 0.0 0.00 0.00 0.00 90 1015.6
20260906003919 63 183 0.0 0.0 0.00 0.00 0.00 89 1015.6
20260906003414 63 183 0.0 0.0 0.00 0.00 0.00 89 1015.6
20260906002909 64 183 0.0 0.0 0.00 0.00 0.00 88 1015.7
20260906002409 64 183 0.0 0.0 0.00 0.00 0.00 88 1015.6
20260906001904 64 183 0.0 0.0 0.00 0.00 0.00 88 1015.7
20260906001400 64 182 0.0 0.0 0.00 0.00 0.00 87 1015.6
20260906000859 65 188 0.0 0.0 0.00 0.00 0.00 86 1015.6
20260906000355 65 187 0.0 0.0 0.00 0.00 0.00 86 1015.6
20260905235849 65 187 0.0 0.0 0.00 0.00 0.00 85 1015.6
20260905235343 65 187 0.0 0.0 0.00 0.00 0.00 84 1015.6
20260905234838 66 187 0.0 0.0 0.00 0.00 0.00 84 1015.9
20260905234334 66 187 0.0 0.0 0.00 0.00 0.00 83 1015.8
20260905233829 67 187 0.0 0.0 0.00 0.00 0.00 82 1015.6
20260905233324 67 187 0.0 0.0 0.00 0.00 0.00 81 1015.6
20260905232822 68 187 0.0 0.0 0.00 0.00 0.00 80 1015.7
20260905232319 68 186 0.0 0.0 0.00 0.00 0.00 78 1015.7
20260905231815 68 183 0.0 0.0 0.00 0.00 0.00 78 1015.8
20260905231310 69 209 0.9 0.9 0.00 0.00 0.00 75 1015.7
20260905230806 69 191 0.0 0.0 0.00 0.00 0.00 74 1015.6
20260905230304 70 193 0.0 0.0 0.00 0.00 0.00 72 1015.5
20260905225803 71 192 0.0 0.0 0.00 0.00 0.00 70 1015.6
20260905225258 71 191 0.0 0.0 0.00 0.00 0.00 68 1015.5
20260905224758 73 213 0.9 1.7 0.00 0.00 0.00 65 1015.7
20260905224254 74 211 0.0 0.9 0.00 0.00 0.00 63 1015.5
20260905223749 73 191 0.0 0.0 0.00 0.00 0.00 63 1015.5
20260905223246 73 234 0.9 1.7 0.00 0.00 0.00 61 1015.6
20260905222741 73 192 0.9 0.9 0.00 0.00 0.00 64 1015.4
20260905222240 73 224 1.7 1.7 0.00 0.00 0.00 63 1015.7
20260905221736 74 222 0.9 0.9 0.00 0.00 0.00 63 1015.5
20260905221233 74 217 0.9 0.9 0.00 0.00 0.00 63 1015.4
20260905220729 73 224 0.9 1.7 0.00 0.00 0.00 63 1015.6
20260905220225 73 271 2.6 3.5 0.00 0.00 0.00 62 1015.3
20260905215724 74 209 1.7 2.6 0.00 0.00 0.00 62 1015.3
20260905215220 73 207 0.9 0.9 0.00 0.00 0.00 63 1015.3
20260905214715 73 210 1.7 1.7 0.00 0.00 0.00 63 1015.1
20260905214211 73 263 0.9 1.7 0.00 0.00 0.00 64 1015.2
20260905213706 74 200 0.0 0.9 0.00 0.00 0.00 64 1015.2